Погода в Елабуге

Россия / Республика Татарстан     55°45′24″N   52°03′16″E
темп.,
°C
ветер,
м/с
пор.,
м/с
влажн.,
%
обл.,
%
осадки,
мм/ч
давл.,
гПа
погр.,
м
6 марта, сб
сб600:00−13зюз469643 0.0 100887
03:00−14юз479855 0.0 101097
06:00−13юз389692 0.3 1010221
09:00−10зсз469296 0.6 1011407
12:00−8сз4587100 0.1 1012584
15:00−10зсз468396 0.1 1012528
18:00−15з339212 0.0 101321
21:00−15зюз339736 0.0 101438
7 марта, вс
вс700:00−18зюз339870 0.0 101321
03:00−18юз239978 0.1 101320
06:00−17юз239799 0.1 101131
09:00−15юз349597 0.1 1011226
12:00−11юз349097 0.0 1010369
15:00−10юз359299 0.1 1009390
18:00−13ю359694 0.1 1007103
21:00−14ю499696 0.1 1007193
8 марта, пн
пн800:00−11ю61293100 0.1 1003389
03:00−10ю71393100 0.7 999610
06:00−7ю71494100 0.6 997745
09:00−7зюз7118583 1.3 998595
12:00−6юз6118333 0.0 999636
15:00−4юз5107937 0.0 999769
18:00−9ююв348690 0.0 99856
21:00−6вюв489582 1.1 995287
9 марта, вт
вт900:00−8юз71386100 1.1 993567
03:00−8з9149196 1.5 994717
06:00−10з7149297 0.1 998490
09:00−9зюз7119198 0.2 1002541
12:00−9з71090100 0.2 1005622
15:00−10з6890100 0.3 1007680
18:00−13зюз479596 0.1 1009158
21:00−15з239697 0.2 101035
10 марта, ср
ср1000:00−18з339663 0.0 101025
03:00−17з239768 0.1 101173
06:00−17з239794 0.1 101271
09:00−15сз469394 0.2 1013354
12:00−13сз4588100 0.1 1014617
15:00−13сз4589100 0.2 1014665
18:00−16зсз4796100 0.1 1015186
21:00−20сз369899 0.2 1018124